Location: Bremen
(53.0793°N, 8.8017°E)
Time: 18:32:37
(UTC+01:00)

BlueWalker 3 - Visible Passes

Search period start: 27 February 2024 00:00
Search period end: 08 March 2024 00:00
Orbit: 486 x 500 km, 53.2° (Epoch: 26 February)

Date Brightness Start Highest point End Pass type
(mag) Time Alt. Az. Time Alt. Az. Time Alt. Az.
27 Feb 1.9 18:33:37 10° W 18:37:25 86° N 18:41:13 10° E visible
27 Feb 1.9 20:11:57 10° W 20:15:42 65° SSW 20:15:48 64° S visible
28 Feb 2.0 19:48:05 10° W 19:51:51 66° SSW 19:52:59 41° SE visible
28 Feb 4.8 21:26:44 10° W 21:27:28 14° W 21:27:28 14° W visible
29 Feb 2.0 19:24:13 10° W 19:27:59 67° SSW 19:30:12 23° ESE visible
29 Feb 4.2 21:02:51 10° W 21:04:41 19° WSW 21:04:41 19° WSW visible
01 Mar 2.1 19:00:20 10° W 19:04:05 68° SSW 19:07:26 13° ESE visible
01 Mar 3.7 20:38:56 10° W 20:41:55 23° SW 20:41:55 23° SW visible
02 Mar 2.1 18:36:25 10° W 18:40:12 69° SSW 18:43:56 10° ESE visible
02 Mar 3.7 20:15:01 10° W 20:18:03 23° SW 20:19:13 20° S visible
03 Mar 3.8 19:51:04 10° W 19:54:08 24° SW 19:56:35 13° SSE visible
04 Mar 3.8 19:27:05 10° W 19:30:12 24° SW 19:33:18 10° SSE visible
05 Mar 3.9 19:03:07 10° W 19:06:16 25° SW 19:09:23 10° SSE visible
